Hourly Data Report for January 17, 2005

TORONTO CITY
ONTARIO

43°40'00.000" N
79°24'00.000" W
112.50 m
6158355
71508
XTO

Download Data

Hourly Data (January 2005)
Hourly Data Report for January 17, 2005
TIME
LST
Temp Definition
°C
Dew Point Definition
°C
Rel Hum Definition
%
Precip. Amount Definition
mm

Wind Dir Definition
10's deg

Wind Spd Definition
km/h
Visibility Definition
km
Stn Press Definition
kPa
Hmdx Definition


Wind Chill Definition


Weather Definition


00:00 -9.3 -12.3 79   LegendMM LegendMM   101.66     LegendNANA
01:00 -9.4 -12.2 80   LegendMM LegendMM   101.63     LegendNANA
02:00 -9.6 -12.3 81   LegendMM LegendMM   101.61     LegendNANA
03:00 -9.5 -11.9 83   LegendMM LegendMM   101.60     LegendNANA
04:00 -9.0 -11.5 82   LegendMM LegendMM   101.57     LegendNANA
05:00 -9.0 -12.5 76   LegendMM LegendMM   101.52     LegendNANA
06:00 -9.1 -12.8 74   LegendMM LegendMM   101.48     LegendNANA
07:00 -9.5 -13.1 75   LegendMM LegendMM   101.49     LegendNANA
08:00 -9.6 -13.0 76   LegendMM LegendMM   101.49     LegendNANA
09:00 -9.4 -12.5 78   LegendMM LegendMM   101.49     LegendNANA
10:00 -9.0 -12.3 77   LegendMM LegendMM   101.49     LegendNANA
11:00 -8.7 -13.0 71   LegendMM LegendMM   101.46     LegendNANA
12:00 -8.2 -14.0 63   LegendMM LegendMM   101.37     LegendNANA
13:00 -7.5 -14.6 57   LegendMM LegendMM   101.32     LegendNANA
14:00 -7.9 -14.3 60   LegendMM LegendMM   101.30     LegendNANA
15:00 -8.4 -14.0 64   LegendMM LegendMM   101.32     LegendNANA
16:00 -9.1 -16.4 55   LegendMM LegendMM   101.41     LegendNANA
17:00 -10.1 -18.3 51   LegendMM LegendMM   101.54     LegendNANA
18:00 -10.9 -17.9 56   LegendMM LegendMM   101.65     LegendNANA
19:00 -11.6 -14.9 76   LegendMM LegendMM   101.76     LegendNANA
20:00 -11.8 -16.2 70   LegendMM LegendMM   101.81     LegendNANA
21:00 -12.6 -16.3 74   LegendMM LegendMM   101.85     LegendNANA
22:00 -13.2 -15.7 81   LegendMM LegendMM   101.93     LegendNANA
23:00 -14.6 -19.1 69   LegendMM LegendMM   102.02     LegendNANA

Notes on Data Quality.

Legend

  • E = Estimated
  • M = Missing
  • NA = Not Available*
  • [empty] = Indicates an unobserved value
Date modified: